Time,TemperatureF,DewpointF,PressureIn,WindDirection,WindDirectionDegrees,WindSpeedMPH,WindSpeedGustMPH,Humidity,HourlyPrecipIn,Conditions,Clouds,dailyrainin,SoftwareType,DateUTC
2013-09-16 00:10:00,63.4,58.0,30.12,WSW,239,6.0,10.0,82,0.00,,,0.00,weatherlink.com 1.10,2013-09-16 04:10:00,
2013-09-16 00:25:00,63.7,58.0,30.12,West,271,8.0,13.0,82,0.00,,,0.00,weatherlink.com 1.10,2013-09-16 04:25:00,
2013-09-16 00:40:00,63.8,59.0,30.12,West,260,7.0,11.0,84,0.00,,,0.00,weatherlink.com 1.10,2013-09-16 04:40:00,
2013-09-16 00:55:00,63.7,59.0,30.12,WSW,248,7.0,8.0,84,0.00,,,0.00,weatherlink.com 1.10,2013-09-16 04:55:00,
2013-09-16 01:10:00,63.5,59.0,30.11,WSW,253,3.0,7.0,85,0.00,,,0.00,weatherlink.com 1.10,2013-09-16 05:10:00,
2013-09-16 01:25:00,63.5,59.0,30.11,West,278,2.0,7.0,86,0.00,,,0.00,weatherlink.com 1.10,2013-09-16 05:25:00,
2013-09-16 01:40:00,63.5,59.0,30.11,West,266,3.0,7.0,86,0.00,,,0.00,weatherlink.com 1.10,2013-09-16 05:40:00,
2013-09-16 01:55:00,63.4,59.0,30.10,West,277,3.0,6.0,86,0.00,,,0.00,weatherlink.com 1.10,2013-09-16 05:55:00,
2013-09-16 02:10:00,63.1,59.0,30.09,West,274,3.0,4.0,87,0.00,,,0.00,weatherlink.com 1.10,2013-09-16 06:10:00,
2013-09-16 02:25:00,63.5,61.0,30.09,WSW,242,5.0,7.0,90,0.00,,,0.00,weatherlink.com 1.10,2013-09-16 06:25:00,
2013-09-16 02:40:00,64.0,61.0,30.09,WSW,253,6.0,9.0,90,0.00,,,0.00,weatherlink.com 1.10,2013-09-16 06:40:00,
2013-09-16 02:55:00,64.3,61.0,30.09,WSW,241,7.0,10.0,90,0.00,,,0.00,weatherlink.com 1.10,2013-09-16 06:55:00,
2013-09-16 03:10:00,64.4,60.0,30.09,WNW,288,6.0,12.0,85,0.00,,,0.00,weatherlink.com 1.10,2013-09-16 07:10:00,
2013-09-16 03:25:00,64.7,59.0,30.09,SW,215,7.0,11.0,83,0.00,,,0.00,weatherlink.com 1.10,2013-09-16 07:25:00,
2013-09-16 03:40:00,64.7,58.0,30.09,WNW,287,11.0,14.0,79,0.00,,,0.00,weatherlink.com 1.10,2013-09-16 07:40:00,
2013-09-16 03:55:00,64.6,59.0,30.09,WSW,257,8.0,13.0,82,0.00,,,0.00,weatherlink.com 1.10,2013-09-16 07:55:00,
2013-09-16 04:10:00,64.2,59.0,30.08,SW,230,7.0,11.0,84,0.00,,,0.00,weatherlink.com 1.10,2013-09-16 08:10:00,
2013-09-16 04:25:00,63.9,59.0,30.09,WSW,248,5.0,10.0,85,0.00,,,0.00,weatherlink.com 1.10,2013-09-16 08:25:00,
2013-09-16 04:40:00,63.7,59.0,30.09,West,262,4.0,11.0,85,0.00,,,0.00,weatherlink.com 1.10,2013-09-16 08:40:00,
2013-09-16 04:55:00,64.0,60.0,30.09,SW,219,8.0,10.0,85,0.00,,,0.00,weatherlink.com 1.10,2013-09-16 08:55:00,
2013-09-16 05:10:00,64.0,60.0,30.08,WNW,291,6.0,10.0,85,0.00,,,0.00,weatherlink.com 1.10,2013-09-16 09:10:00,
2013-09-16 05:25:00,63.5,60.0,30.09,WNW,295,3.0,5.0,87,0.00,,,0.00,weatherlink.com 1.10,2013-09-16 09:25:00,
2013-09-16 05:40:00,62.2,59.0,30.09,WNW,302,3.0,5.0,88,0.00,,,0.00,weatherlink.com 1.10,2013-09-16 09:40:00,
2013-09-16 05:55:00,61.0,58.0,30.09,NW,304,3.0,5.0,89,0.00,,,0.00,weatherlink.com 1.10,2013-09-16 09:55:00,
2013-09-16 06:10:00,60.4,57.0,30.09,WNW,293,2.0,5.0,89,0.00,,,0.00,weatherlink.com 1.10,2013-09-16 10:10:00,
2013-09-16 06:25:00,60.3,57.0,30.09,West,281,2.0,5.0,89,0.00,,,0.00,weatherlink.com 1.10,2013-09-16 10:25:00,
2013-09-16 06:40:00,60.4,57.0,30.09,WNW,283,3.0,4.0,89,0.00,,,0.00,weatherlink.com 1.10,2013-09-16 10:40:00,
2013-09-16 06:55:00,61.4,58.0,30.09,West,274,3.0,5.0,88,0.00,,,0.00,weatherlink.com 1.10,2013-09-16 10:55:00,
2013-09-16 07:10:00,61.8,58.0,30.10,WNW,294,1.0,3.0,87,0.00,,,0.00,weatherlink.com 1.10,2013-09-16 11:10:00,
2013-09-16 07:25:00,61.5,58.0,30.10,WSW,257,1.0,4.0,87,0.00,,,0.00,weatherlink.com 1.10,2013-09-16 11:25:00,
2013-09-16 07:40:00,61.2,58.0,30.09,WNW,285,0.0,3.0,88,0.00,,,0.00,weatherlink.com 1.10,2013-09-16 11:40:00,
2013-09-16 07:55:00,61.2,58.0,30.09,NW,307,1.0,2.0,88,0.00,,,0.00,weatherlink.com 1.10,2013-09-16 11:55:00,
2013-09-16 08:10:00,60.9,57.0,30.09,NW,305,1.0,2.0,88,0.00,,,0.00,weatherlink.com 1.10,2013-09-16 12:10:00,
2013-09-16 08:25:00,60.8,57.0,30.10,WNW,301,3.0,4.0,88,0.00,,,0.00,weatherlink.com 1.10,2013-09-16 12:25:00,
2013-09-16 08:40:00,60.4,57.0,30.11,NW,321,6.0,8.0,88,0.00,,,0.00,weatherlink.com 1.10,2013-09-16 12:40:00,
2013-09-16 08:55:00,60.2,57.0,30.10,WNW,295,4.0,6.0,88,0.00,,,0.00,weatherlink.com 1.10,2013-09-16 12:55:00,
2013-09-16 09:10:00,60.1,56.0,30.11,NW,317,4.0,7.0,87,0.00,,,0.00,weatherlink.com 1.10,2013-09-16 13:10:00,
2013-09-16 09:25:00,59.9,56.0,30.09,NNE,30,6.0,8.0,88,0.00,,,0.00,weatherlink.com 1.10,2013-09-16 13:25:00,
2013-09-16 09:40:00,60.3,56.0,30.10,NW,321,5.0,7.0,86,0.00,,,0.00,weatherlink.com 1.10,2013-09-16 13:40:00,
2013-09-16 09:55:00,60.1,56.0,30.10,NNE,32,7.0,11.0,85,0.00,,,0.00,weatherlink.com 1.10,2013-09-16 13:55:00,
2013-09-16 10:10:00,59.5,55.0,30.10,North,359,7.0,11.0,85,0.00,,,0.00,weatherlink.com 1.10,2013-09-16 14:10:00,
2013-09-16 10:26:00,59.1,55.0,30.11,NW,323,3.0,10.0,87,0.00,,,0.00,weatherlink.com 1.10,2013-09-16 14:26:00,
2013-09-16 10:41:00,58.7,55.0,30.11,NNW,327,4.0,11.0,88,0.00,,,0.00,weatherlink.com 1.10,2013-09-16 14:41:00,
2013-09-16 10:56:00,58.8,55.0,30.11,NNW,343,7.0,10.0,88,0.00,,,0.00,weatherlink.com 1.10,2013-09-16 14:56:00,
2013-09-16 11:11:00,59.2,55.0,30.11,ENE,58,5.0,12.0,85,0.00,,,0.00,weatherlink.com 1.10,2013-09-16 15:11:00,
2013-09-16 11:26:00,59.6,55.0,30.11,NNW,339,5.0,11.0,84,0.00,,,0.00,weatherlink.com 1.10,2013-09-16 15:26:00,
2013-09-16 11:41:00,60.2,55.0,30.11,NNE,30,4.0,7.0,84,0.00,,,0.00,weatherlink.com 1.10,2013-09-16 15:41:00,
2013-09-16 11:56:00,60.8,56.0,30.10,NE,46,3.0,7.0,83,0.00,,,0.00,weatherlink.com 1.10,2013-09-16 15:56:00,
2013-09-16 12:11:00,60.5,55.0,30.11,North,352,2.0,9.0,82,0.00,,,0.00,weatherlink.com 1.10,2013-09-16 16:11:00,
2013-09-16 12:26:00,60.2,55.0,30.10,North,357,3.0,5.0,83,0.00,,,0.00,weatherlink.com 1.10,2013-09-16 16:26:00,
2013-09-16 12:41:00,60.1,56.0,30.10,NNE,19,2.0,4.0,85,0.00,,,0.00,weatherlink.com 1.10,2013-09-16 16:41:00,
2013-09-16 12:56:00,60.3,56.0,30.10,NNE,16,4.0,4.0,84,0.00,,,0.00,weatherlink.com 1.10,2013-09-16 16:56:00,
2013-09-16 13:11:00,61.1,56.0,30.09,NNE,33,2.0,3.0,84,0.00,,,0.00,weatherlink.com 1.10,2013-09-16 17:11:00,
2013-09-16 13:26:00,61.6,56.0,30.09,WNW,300,1.0,2.0,82,0.00,,,0.00,weatherlink.com 1.10,2013-09-16 17:26:00,
2013-09-16 13:41:00,62.1,55.0,30.09,NW,304,2.0,6.0,77,0.00,,,0.00,weatherlink.com 1.10,2013-09-16 17:41:00,
2013-09-16 13:56:00,63.4,55.0,30.08,NW,314,3.0,7.0,75,0.00,,,0.00,weatherlink.com 1.10,2013-09-16 17:56:00,
2013-09-16 14:11:00,64.3,55.0,30.08,WNW,292,8.0,9.0,71,0.00,,,0.00,weatherlink.com 1.10,2013-09-16 18:11:00,
2013-09-16 14:26:00,65.1,54.0,30.08,North,9,9.0,12.0,68,0.00,,,0.00,weatherlink.com 1.10,2013-09-16 18:26:00,
2013-09-16 14:41:00,65.6,55.0,30.08,NW,318,5.0,14.0,69,0.00,,,0.00,weatherlink.com 1.10,2013-09-16 18:41:00,
2013-09-16 14:56:00,66.0,54.0,30.08,NW,304,8.0,12.0,66,0.00,,,0.00,weatherlink.com 1.10,2013-09-16 18:56:00,
2013-09-16 15:11:00,66.2,55.0,30.08,NW,321,8.0,11.0,68,0.00,,,0.00,weatherlink.com 1.10,2013-09-16 19:11:00,
2013-09-16 15:26:00,66.3,56.0,30.07,WNW,302,2.0,13.0,70,0.00,,,0.00,weatherlink.com 1.10,2013-09-16 19:26:00,
2013-09-16 15:41:00,66.9,56.0,30.07,NNW,331,3.0,10.0,67,0.00,,,0.00,weatherlink.com 1.10,2013-09-16 19:41:00,
2013-09-16 15:56:00,67.7,56.0,30.07,NE,44,5.0,10.0,66,0.00,,,0.00,weatherlink.com 1.10,2013-09-16 19:56:00,
2013-09-16 16:11:00,66.6,56.0,30.07,NW,325,2.0,7.0,68,0.00,,,0.00,weatherlink.com 1.10,2013-09-16 20:11:00,
2013-09-16 16:26:00,66.7,55.0,30.07,North,356,2.0,7.0,66,0.00,,,0.00,weatherlink.com 1.10,2013-09-16 20:26:00,
2013-09-16 16:41:00,66.5,55.0,30.07,NNW,330,3.0,7.0,67,0.00,,,0.00,weatherlink.com 1.10,2013-09-16 20:41:00,
2013-09-16 16:56:00,66.6,55.0,30.08,NNW,342,5.0,6.0,67,0.00,,,0.00,weatherlink.com 1.10,2013-09-16 20:56:00,
2013-09-16 17:11:00,66.6,56.0,30.08,WNW,301,2.0,5.0,68,0.00,,,0.00,weatherlink.com 1.10,2013-09-16 21:11:00,
2013-09-16 17:26:00,66.1,56.0,30.09,WNW,290,4.0,5.0,69,0.00,,,0.00,weatherlink.com 1.10,2013-09-16 21:26:00,
2013-09-16 17:41:00,65.9,56.0,30.09,NW,319,3.0,5.0,71,0.00,,,0.00,weatherlink.com 1.10,2013-09-16 21:41:00,
2013-09-16 17:57:00,65.9,56.0,30.09,NNE,25,4.0,6.0,70,0.00,,,0.00,weatherlink.com 1.10,2013-09-16 21:57:00,
2013-09-16 18:12:00,66.2,56.0,30.10,North,354,4.0,9.0,69,0.00,,,0.00,weatherlink.com 1.10,2013-09-16 22:12:00,
2013-09-16 18:27:00,65.8,55.0,30.10,North,353,2.0,7.0,69,0.00,,,0.00,weatherlink.com 1.10,2013-09-16 22:27:00,
2013-09-16 18:42:00,65.0,56.0,30.10,North,350,3.0,3.0,72,0.00,,,0.00,weatherlink.com 1.10,2013-09-16 22:42:00,
2013-09-16 18:57:00,64.1,56.0,30.11,NW,325,1.0,2.0,74,0.00,,,0.00,weatherlink.com 1.10,2013-09-16 22:57:00,
2013-09-16 19:12:00,63.0,56.0,30.11,NNW,338,1.0,2.0,77,0.00,,,0.00,weatherlink.com 1.10,2013-09-16 23:12:00,
2013-09-16 19:27:00,62.0,55.0,30.11,WNW,293,3.0,3.0,79,0.00,,,0.00,weatherlink.com 1.10,2013-09-16 23:27:00,
2013-09-16 19:42:00,61.4,56.0,30.12,NW,305,3.0,4.0,82,0.00,,,0.00,weatherlink.com 1.10,2013-09-16 23:42:00,
2013-09-16 19:57:00,60.9,56.0,30.13,NNW,343,3.0,7.0,83,0.00,,,0.00,weatherlink.com 1.10,2013-09-16 23:57:00,
2013-09-16 20:12:00,60.9,55.0,30.14,NNW,348,4.0,8.0,82,0.00,,,0.00,weatherlink.com 1.10,2013-09-17 00:12:00,
2013-09-16 20:27:00,61.2,55.0,30.15,NNW,338,4.0,9.0,81,0.00,,,0.00,weatherlink.com 1.10,2013-09-17 00:27:00,
2013-09-16 20:42:00,61.5,55.0,30.16,NW,324,7.0,9.0,79,0.00,,,0.00,weatherlink.com 1.10,2013-09-17 00:42:00,
2013-09-16 20:57:00,61.4,55.0,30.16,NW,322,7.0,11.0,79,0.00,,,0.00,weatherlink.com 1.10,2013-09-17 00:57:00,
2013-09-16 21:12:00,61.3,54.0,30.17,NNW,334,5.0,11.0,77,0.00,,,0.00,weatherlink.com 1.10,2013-09-17 01:12:00,
2013-09-16 21:27:00,60.7,53.0,30.18,ENE,65,9.0,13.0,75,0.00,,,0.00,weatherlink.com 1.10,2013-09-17 01:27:00,
2013-09-16 21:42:00,59.6,51.0,30.19,NNW,327,8.0,16.0,74,0.00,,,0.00,weatherlink.com 1.10,2013-09-17 01:42:00,
2013-09-16 21:57:00,58.7,50.0,30.20,NNW,340,6.0,13.0,72,0.00,,,0.00,weatherlink.com 1.10,2013-09-17 01:57:00,
2013-09-16 22:12:00,58.0,49.0,30.21,North,8,6.0,18.0,71,0.00,,,0.00,weatherlink.com 1.10,2013-09-17 02:12:00,
2013-09-16 22:27:00,57.3,48.0,30.22,North,352,8.0,16.0,72,0.00,,,0.00,weatherlink.com 1.10,2013-09-17 02:27:00,
2013-09-16 22:42:00,56.6,48.0,30.23,NNE,20,4.0,16.0,72,0.00,,,0.00,weatherlink.com 1.10,2013-09-17 02:42:00,
2013-09-16 22:57:00,55.6,47.0,30.24,NNE,16,6.0,17.0,73,0.00,,,0.00,weatherlink.com 1.10,2013-09-17 02:57:00,
2013-09-16 23:12:00,54.7,45.0,30.25,NNW,339,6.0,20.0,70,0.00,,,0.00,weatherlink.com 1.10,2013-09-17 03:12:00,
2013-09-16 23:27:00,53.7,45.0,30.25,NNW,346,4.0,11.0,72,0.00,,,0.00,weatherlink.com 1.10,2013-09-17 03:27:00,
2013-09-16 23:42:00,52.9,44.0,30.26,NNW,333,5.0,12.0,72,0.00,,,0.00,weatherlink.com 1.10,2013-09-17 03:42:00,
2013-09-16 23:58:00,52.1,43.0,30.26,NNW,328,10.0,15.0,72,0.00,,,0.00,weatherlink.com 1.10,2013-09-17 03:58:00,